Location: Poughquag
(41.6090°N, 73.6820°W)
Time: 14:08:40
(UTC-04:00)

Vanguard 3 - Pass Details

Date: 06 June 2020
Orbit: 510 x 3261 km, 33.3° (Epoch: 05 July)

Event Time Altitude Azimuth Distance (km) Brightness Sun altitude
Exits shadow 03:44:35 - 253° (WSW) 6,726 11.3 -14.5°
Reaches altitude 10° 03:47:22 10° 252° (WSW) 6,122 11.1 -14.1°
Maximum altitude 04:05:35 62° 178° (S) 2,732 9.6 -11.8°
Drops below altitude 10° 04:17:03 10° 102° (ESE) 4,044 11.2 -10.3°
Sets 04:19:42 0° 98° (E) 4,730 11.7 -9.9°
